GSAT-18 (41793 NORAD) Tracking and Keplerian Element Data

This shows tracking and keplerian element data for the satellite.

Feedback or suggestion? Click here.




ElementValue
Catalog41793
NameGSAT-18
Epoch Orbit3052
Epoch Day34.55544177
Epoch Year2025
RAAN123.9535
Inclination0.0044
Eccentricity0.0002983
Argument of Perigee130.7232
Mean Anonmoly153.2562
Mean Motion1.00270961
Decay Rate-7.2E-07
L11 41793U 16060A 25034.55544177 -.00000072 00000+0 00000+0 0 9997
L22 41793 0.0044 123.9535 0002983 130.7232 153.2562 1.00270961 30522



Live tracking and technical data element details for GSAT-18 (NORAD 41793). GSAT-18 can be tracked NOW for your location showing map with azimuth and elevation plus other details from your city location.







IsCatalogInMostPopularTable: catalog: 41793, numindb: 535
Update: records affected: 1



GetName: 41793 GSAT-18

Hit Count: updated at: Thu, 15 May 2025 19:50:27 GMT